Location: Cactus School
(34.5700°N, 118.0931°W)
Time: 08:58:34
(UTC-08:00)

Tiros 1 - Pass Details

Date: 26 November 2019
Orbit: 630 x 664 km, 48.4° (Epoch: 04 December)

Event Time Altitude Azimuth Distance (km) Brightness Sun altitude
Rises 11:37:35 0° 257° (WSW) 2,920 10.7 34.4°
Reaches altitude 10° 11:40:05 10° 266° (W) 2,010 9.8 34.4°
Maximum altitude 11:44:18 34° 332° (NNW) 1,036 8.1 34.4°
Drops below altitude 10° 11:48:31 10° 38° (NE) 2,008 9.4 34.4°
Sets 11:51:01 0° 48° (NE) 2,917 10.2 34.4°
